SES-5

Last updated on Sun Dec 07 2025 00:02:47 GMT+0000 (Coordinated Universal Time)

1 38652U 12036A 25340.43030782 .00000041 00000+0 00000+0 0 9990 2 38652 0.0575 304.8797 0002256 306.7879 343.6893 1.00270520 42533
UTC large
Height (km)
Speed (km/s)
/
Latitude / Longitude
Inclination (degrees)
Orbital Period (minutes)
Azimuth
Elevation
Range (km)
Doppler Factor

Next 0 passes for location: London (51.5072 / 0.1276)

Sorry there are no passes over London.